Date String (YYYY-MM-DD hh:mm:ss) UTC,Instrument flags,Ambient pressure (hPa),Sample flow (lpm),Bypass flow (lpm),Sample temperature (°C),Ambient temperature (°C),ASC tube jacket temperature (°C),LED temperature (°C),Box temperature (°C),Sample RH (%),Span deviation,Mass concentration (μg/m³),Mass concentration (μg/m³),Mass concentration (μg/m³)
DateTimeUTC,F1_M11,P_M11,Q1_M11,Q2_M11,T1_M11,T2_M11,T3_M11,T4_M11,T5_M11,U1_M11,ZSPAN_M11,X0_M11,X2_M11,X1_M11
2022-12-03 00:00:00,,0825.3,5.00,0.00,21.5,20.0,00.0,30.5,23.1,08.3,0000.0,0002.58,0000.76,0000.48
2022-12-03 00:01:00,,0825.3,5.00,0.00,21.5,19.8,00.0,30.5,23.0,08.3,0000.0,0002.66,0000.76,0000.47
2022-12-03 00:02:00,,0825.3,5.00,0.00,21.4,19.7,00.0,30.5,22.9,08.5,0000.0,0002.16,0000.75,0000.47
2022-12-03 00:03:00,,0825.3,5.00,0.00,21.4,20.1,00.0,30.4,23.1,08.4,0000.0,0002.64,0000.76,0000.46
2022-12-03 00:04:00,,0825.4,5.00,0.00,21.5,21.2,00.0,30.4,23.4,08.4,0000.0,0002.56,0000.73,0000.46
2022-12-03 00:05:00,,0825.3,5.00,0.00,21.6,22.1,00.0,30.4,23.6,08.3,0000.0,0002.65,0000.72,0000.45
2022-12-03 00:06:00,,0825.3,4.99,0.00,21.7,21.9,00.0,30.5,23.7,08.1,0000.0,0002.72,0000.70,0000.44
2022-12-03 00:07:00,,0825.4,4.99,0.00,21.7,21.4,00.0,30.5,23.6,08.1,0000.0,0002.78,0000.71,0000.44
2022-12-03 00:08:00,,0825.4,5.01,0.00,21.7,21.0,00.0,30.6,23.4,08.2,0000.0,0003.06,0000.72,0000.45
2022-12-03 00:09:00,,0825.4,5.01,0.00,21.7,20.7,00.0,30.6,23.3,08.2,0000.0,0003.87,0000.71,0000.45
2022-12-03 00:10:00,,0825.4,5.01,0.00,21.6,20.4,00.0,30.6,23.2,08.3,0000.0,0003.94,0000.70,0000.46
2022-12-03 00:11:00,,0825.4,4.99,0.00,21.6,20.2,00.0,30.6,23.2,08.2,0000.0,0003.92,0000.69,0000.48
2022-12-03 00:12:00,,0825.5,4.99,0.00,21.5,20.1,00.0,30.5,23.1,08.3,0000.0,0003.79,0000.67,0000.48
2022-12-03 00:13:00,,0825.5,5.00,0.00,21.5,20.0,00.0,30.5,23.1,08.3,0000.0,0003.14,0000.66,0000.48
2022-12-03 00:14:00,,0825.5,4.99,0.00,21.5,19.9,00.0,30.5,23.0,08.2,0000.0,0002.98,0000.64,0000.48
2022-12-03 00:15:00,,0825.4,5.00,0.00,21.4,19.9,00.0,30.5,23.0,08.3,0000.0,0003.46,0000.64,0000.49
2022-12-03 00:16:00,,0825.4,5.00,0.00,21.5,20.5,00.0,30.4,23.2,08.3,0000.0,0003.70,0000.64,0000.50
2022-12-03 00:17:00,,0825.5,5.01,0.00,21.6,21.6,00.0,30.4,23.5,08.3,0000.0,0004.56,0000.64,0000.51
2022-12-03 00:18:00,,0825.5,4.98,0.00,21.7,22.4,00.0,30.4,23.8,08.2,0000.0,0004.47,0000.62,0000.51
2022-12-03 00:19:00,,0825.4,4.99,0.00,21.8,22.0,00.0,30.5,23.8,08.1,0000.0,0004.24,0000.62,0000.51
2022-12-03 00:20:00,,0825.5,5.00,0.00,21.8,21.4,00.0,30.6,23.7,08.0,0000.0,0003.62,0000.65,0000.51
2022-12-03 00:21:00,,0825.5,5.01,0.00,21.8,21.0,00.0,30.6,23.6,08.1,0000.0,0003.58,0000.68,0000.52
2022-12-03 00:22:00,,0825.4,5.00,0.00,21.7,20.7,00.0,30.6,23.4,08.0,0000.0,0003.59,0000.69,0000.51
2022-12-03 00:23:00,,0825.5,5.00,0.00,21.7,20.5,00.0,30.6,23.3,08.0,0000.0,0003.60,0000.69,0000.52
2022-12-03 00:24:00,,0825.4,5.00,0.00,21.6,20.3,00.0,30.6,23.3,08.1,0000.0,0004.60,0000.71,0000.53
2022-12-03 00:25:00,,0825.4,4.99,0.00,21.6,20.2,00.0,30.6,23.2,08.1,0000.0,0004.43,0000.72,0000.53
2022-12-03 00:26:00,,0825.4,5.00,0.00,21.6,20.0,00.0,30.6,23.2,08.1,0000.0,0005.77,0000.75,0000.54
2022-12-03 00:27:00,,0825.4,5.00,0.00,21.5,19.9,00.0,30.6,23.1,08.1,0000.0,0005.52,0000.77,0000.54
2022-12-03 00:28:00,,0825.4,5.00,0.00,21.5,19.8,00.0,30.5,23.0,08.0,0000.0,0004.48,0000.77,0000.53
2022-12-03 00:29:00,,0825.3,5.01,0.00,21.5,19.8,00.0,30.5,23.0,08.1,0000.0,0004.60,0000.80,0000.53
2022-12-03 00:30:00,,0825.4,5.02,0.00,21.5,20.5,00.0,30.4,23.2,08.0,0000.0,0004.48,0000.78,0000.52
2022-12-03 00:31:00,,0825.4,5.00,0.00,21.6,21.6,00.0,30.4,23.5,08.0,0000.0,0004.40,0000.77,0000.53
2022-12-03 00:32:00,,0825.4,5.00,0.00,21.7,22.2,00.0,30.4,23.7,07.9,0000.0,0004.45,0000.75,0000.52
2022-12-03 00:33:00,,0825.5,4.99,0.00,21.8,21.7,00.0,30.5,23.7,07.8,0000.0,0004.45,0000.75,0000.51
2022-12-03 00:34:00,,0825.4,4.99,0.00,21.7,21.1,00.0,30.6,23.6,07.8,0000.0,0004.50,0000.76,0000.51
2022-12-03 00:35:00,,0825.4,5.01,0.00,21.7,20.7,00.0,30.6,23.4,07.8,0000.0,0003.68,0000.78,0000.51
2022-12-03 00:36:00,,0825.5,5.01,0.00,21.7,20.4,00.0,30.6,23.3,07.8,0000.0,0003.58,0000.81,0000.51
2022-12-03 00:37:00,,0825.5,5.00,0.00,21.6,20.2,00.0,30.6,23.2,07.9,0000.0,0001.98,0000.81,0000.50
2022-12-03 00:38:00,,0825.5,5.00,0.00,21.6,20.1,00.0,30.6,23.1,07.9,0000.0,0002.18,0000.83,0000.50
2022-12-03 00:39:00,,0825.5,5.01,0.00,21.5,19.9,00.0,30.5,23.0,07.9,0000.0,0002.20,0000.86,0000.51
2022-12-03 00:40:00,,0825.5,5.00,0.00,21.5,19.7,00.0,30.5,23.0,07.8,0000.0,0002.15,0000.84,0000.51
2022-12-03 00:41:00,,0825.6,5.00,0.00,21.4,19.8,00.0,30.5,23.0,07.9,0000.0,0002.65,0000.84,0000.50
2022-12-03 00:42:00,,0825.6,5.00,0.00,21.5,20.7,00.0,30.4,23.2,08.1,0000.0,0003.12,0000.82,0000.49
2022-12-03 00:43:00,,0825.6,5.00,0.00,21.6,21.8,00.0,30.4,23.5,07.9,0000.0,0002.93,0000.80,0000.49
2022-12-03 00:44:00,,0825.6,5.00,0.00,21.7,22.2,00.0,30.5,23.7,07.8,0000.0,0003.04,0000.82,0000.49
2022-12-03 00:45:00,,0825.5,4.98,0.00,21.8,21.7,00.0,30.6,23.7,07.7,0000.0,0003.00,0000.81,0000.48
2022-12-03 00:46:00,,0825.6,5.01,0.00,21.7,21.1,00.0,30.6,23.5,07.8,0000.0,0002.93,0000.79,0000.48
2022-12-03 00:47:00,,0825.6,5.00,0.00,21.7,20.7,00.0,30.6,23.4,07.7,0000.0,0002.85,0000.79,0000.47
2022-12-03 00:48:00,,0825.7,5.00,0.00,21.7,20.5,00.0,30.6,23.3,07.7,0000.0,0002.74,0000.76,0000.47
2022-12-03 00:49:00,,0825.6,5.01,0.00,21.6,20.3,00.0,30.6,23.2,07.9,0000.0,0002.60,0000.73,0000.47
2022-12-03 00:50:00,,0825.6,5.00,0.00,21.6,20.1,00.0,30.6,23.1,07.7,0000.0,0003.04,0000.71,0000.46
2022-12-03 00:51:00,,0825.6,5.00,0.00,21.5,19.9,00.0,30.5,23.1,07.8,0000.0,0003.57,0000.72,0000.45
2022-12-03 00:52:00,,0825.6,5.00,0.00,21.5,19.8,00.0,30.5,23.0,07.8,0000.0,0003.29,0000.73,0000.45
2022-12-03 00:53:00,,0825.6,5.01,0.00,21.5,20.0,00.0,30.5,23.1,07.8,0000.0,0002.87,0000.74,0000.45
2022-12-03 00:54:00,,0825.6,5.01,0.00,21.6,21.1,00.0,30.5,23.4,07.9,0000.0,0003.87,0000.76,0000.45
2022-12-03 00:55:00,,0825.6,5.00,0.00,21.7,22.0,00.0,30.4,23.7,07.9,0000.0,0003.88,0000.74,0000.45
2022-12-03 00:56:00,,0825.6,4.99,0.00,21.8,21.9,00.0,30.5,23.8,07.7,0000.0,0003.96,0000.73,0000.45
2022-12-03 00:57:00,,0825.5,4.99,0.00,21.8,21.4,00.0,30.6,23.7,07.8,0000.0,0003.96,0000.72,0000.45
2022-12-03 00:58:00,,0825.5,5.00,0.00,21.7,20.9,00.0,30.6,23.5,07.8,0000.0,0004.18,0000.75,0000.44
2022-12-03 00:59:00,,0825.5,5.00,0.00,21.7,20.5,00.0,30.6,23.4,07.8,0000.0,0004.18,0000.76,0000.44
